Hebbronville, TX

6:58 PM CDT on June 22, 2017 (GMT -0500)
Hogg County

Weather History for KHBV - March, 2013

Change the Weather History Date:

Monday, March 18, 2013

  Actual Average (KALI) Record (KALI)
Temperature  
Mean Temperature 78 °F -  
Max Temperature 94 °F 75 °F 98 °F (2013)
Min Temperature 62 °F 54 °F 44 °F (2005)
Cooling Degree Days 13    
Growing Degree Days 28 (Base 50)    
Moisture  
Dew Point 36 °F    
Average Humidity 43    
Maximum Humidity 91    
Minimum Humidity 4    
Precipitation  
Precipitation 0.00 in - - ()
Sea Level Pressure  
Sea Level Pressure 29.78 in    
Wind  
Wind Speed 7 mph (North)    
Max Wind Speed 21 mph    
Max Gust Speed 31 mph    
Visibility 8 miles    
Events Fog    
Averages and records for this station are not official NWS values.
T = Trace of Precipitation, MM = Missing Value Source: NWS Daily Summary

Daily Weather History Graph

Daily Weather History Graph

Search for Another Location

Airport or City:

Trip Planner

Search our weather history database for the weather conditions in past years. The results will help you decide how hot, cold, wet, or windy it might be!

Date:

Astronomy

Mar. 18, 2013 Rise Set
Actual Time 7:40 AM CDT 7:45 PM CDT
Civil Twilight 7:17 AM CDT 8:08 PM CDT
Nautical Twilight 6:50 AM CDT 8:35 PM CDT
Astronomical Twilight 6:23 AM CDT 9:03 PM CDT
Moon 12:11 PM CDT (3/18) 1:16 AM CDT (3/18)
Length of Visible Light 12h 51m
Length of Day
12h 04m
Waxing Crescent, 41% of the Moon is Illuminated
Mar 18
Waxing Crescent
Mar 19
First Quarter
Mar 27
Full
Apr 2
Last Quarter
Apr 10
New

Hourly Weather History & Observations

Time (CDT) Temp. Heat Index Dew Point Humidity Pressure Visibility Wind Dir Wind Speed Gust Speed Precip Events Conditions
12:15 AM 74.1 °F - 59.9 °F 61% 29.73 in 10.0 mi SE 10.4 mph - N/A   Clear
12:35 AM 72.9 °F - 60.1 °F 64% 29.73 in 10.0 mi SSE 8.1 mph - N/A   Clear
12:55 AM 72.0 °F - 60.4 °F 67% 29.73 in 10.0 mi SSE 6.9 mph - N/A   Clear
1:15 AM 71.2 °F - 60.8 °F 69% 29.73 in 10.0 mi SSE 9.2 mph - N/A   Clear
1:55 AM 70.0 °F - 61.3 °F 74% 29.73 in 7.0 mi SSE 6.9 mph - N/A   Clear
2:15 AM 69.1 °F - 61.2 °F 76% 29.73 in 7.0 mi SE 4.6 mph - N/A   Clear
2:35 AM 68.0 °F - 61.0 °F 78% 29.73 in 7.0 mi SSE 4.6 mph - N/A   Clear
2:55 AM 67.3 °F - 61.0 °F 80% 29.72 in 7.0 mi SSE 3.5 mph - N/A   Clear
3:15 AM 66.7 °F - 61.0 °F 82% 29.71 in 7.0 mi SSE 6.9 mph - N/A   Clear
3:35 AM 66.2 °F - 61.0 °F 83% 29.71 in 5.0 mi South 6.9 mph - N/A   Haze
3:55 AM 65.7 °F - 61.0 °F 85% 29.71 in 5.0 mi SSE 6.9 mph - N/A   Haze
4:15 AM 65.1 °F - 61.0 °F 86% 29.70 in 4.0 mi SSE 6.9 mph - N/A   Clear
4:35 AM 64.8 °F - 61.0 °F 88% 29.69 in 2.0 mi SSE 9.2 mph - N/A   Mostly Cloudy
4:55 AM 64.9 °F - 61.3 °F 88% 29.69 in 0.8 mi SSE 6.9 mph - N/A   Overcast
5:15 AM 65.1 °F - 61.7 °F 89% 29.70 in 1.2 mi South 5.8 mph - N/A   Overcast
5:35 AM 64.6 °F - 61.2 °F 89% 29.70 in 4.0 mi SSE 6.9 mph - N/A   Scattered Clouds
5:55 AM 64.0 °F - 60.8 °F 89% 29.70 in 2.5 mi SSE 5.8 mph - N/A   Clear
6:15 AM 63.5 °F - 60.3 °F 89% 29.71 in 2.5 mi SE 3.5 mph - N/A   Clear
6:35 AM 62.8 °F - 59.7 °F 90% 29.73 in 2.0 mi Calm Calm - N/A   Scattered Clouds
6:55 AM 63.1 °F - 59.9 °F 89% 29.75 in 0.2 mi East 4.6 mph - N/A Fog Fog
7:15 AM 63.5 °F - 60.4 °F 90% 29.79 in 0.2 mi WNW 15.0 mph - N/A Fog Fog
7:35 AM 63.3 °F - 60.3 °F 90% 29.80 in 0.5 mi NW 10.4 mph - N/A Fog Fog
7:55 AM 63.1 °F - 60.1 °F 90% 29.80 in 0.5 mi NNW 5.8 mph - N/A Fog Fog
8:15 AM 63.0 °F - 59.9 °F 90% 29.80 in 0.2 mi Calm Calm - N/A Fog Fog
8:35 AM 63.1 °F - 60.3 °F 90% 29.80 in 0.2 mi NNE 4.6 mph - N/A Fog Fog
8:55 AM 63.5 °F - 60.8 °F 91% 29.80 in 0.2 mi ENE 4.6 mph - N/A Fog Fog
9:15 AM 63.9 °F - 61.0 °F 90% 29.81 in 1.5 mi NE 4.6 mph - N/A   Overcast
9:35 AM 64.0 °F - 61.2 °F 90% 29.83 in 2.0 mi North 3.5 mph - N/A   Overcast
9:55 AM 64.6 °F - 61.5 °F 90% 29.83 in 4.0 mi Calm Calm - N/A   Mostly Cloudy
10:15 AM 66.7 °F - 62.1 °F 85% 29.83 in 7.0 mi Calm Calm - N/A   Clear
10:35 AM 70.5 °F - 60.6 °F 71% 29.84 in 10.0 mi Calm Calm - N/A   Clear
10:55 AM 73.6 °F - 59.5 °F 61% 29.84 in 10.0 mi WNW 4.6 mph - N/A   Clear
11:15 AM 75.9 °F - 58.6 °F 55% 29.84 in 10.0 mi WNW 5.8 mph - N/A   Clear
11:35 AM 78.6 °F - 57.4 °F 48% 29.84 in 10.0 mi WNW 8.1 mph - N/A   Clear
11:55 AM 81.5 °F 81.1 °F 55.6 °F 41% 29.83 in 10.0 mi NNW 9.2 mph - N/A   Clear
12:15 PM 83.7 °F 82.4 °F 54.3 °F 36% 29.83 in 10.0 mi NW 10.4 mph - N/A   Clear
12:35 PM 87.3 °F - 45.1 °F 23% 29.83 in 10.0 mi North 13.8 mph 18.4 mph N/A   Clear
12:55 PM 89.4 °F - 38.8 °F 17% 29.83 in 10.0 mi NNW 17.3 mph 23.0 mph N/A   Clear
1:15 PM 90.9 °F - 28.8 °F 11% 29.82 in 10.0 mi North 16.1 mph 26.5 mph N/A   Clear
1:35 PM 91.9 °F - 19.4 °F 7% 29.82 in 10.0 mi North 20.7 mph 31.1 mph N/A   Clear
1:55 PM 92.1 °F - 13.8 °F 6% 29.82 in 10.0 mi NNW 18.4 mph 29.9 mph N/A   Clear
2:15 PM 92.5 °F - 13.3 °F 5% 29.81 in 10.0 mi NNW 18.4 mph 27.6 mph N/A   Clear
2:35 PM 93.0 °F - 9.0 °F 4% 29.80 in 10.0 mi North 12.7 mph 24.2 mph N/A   Clear
2:55 PM 93.6 °F - 2.3 °F 4% 29.80 in 10.0 mi North 11.5 mph 24.2 mph N/A   Clear
3:15 PM 94.1 °F - 5.2 °F 4% 29.79 in 10.0 mi WNW 13.8 mph - N/A   Clear
3:35 PM 94.1 °F - 4.3 °F 4% 29.78 in 10.0 mi North 9.2 mph 18.4 mph N/A   Clear
3:55 PM 93.9 °F - 6.3 °F 4% 29.78 in 10.0 mi NW 9.2 mph 18.4 mph N/A   Clear
4:15 PM 93.9 °F - 6.8 °F 4% 29.77 in 10.0 mi NW 9.2 mph 18.4 mph N/A   Clear
4:35 PM 93.9 °F - 6.6 °F 4% 29.77 in 10.0 mi NW 12.7 mph - N/A   Clear
4:55 PM 94.6 °F - 3.9 °F 4% 29.76 in 10.0 mi WNW 4.6 mph 17.3 mph N/A   Clear
5:15 PM 94.6 °F - 4.8 °F 4% 29.76 in 10.0 mi WNW 11.5 mph 18.4 mph N/A   Clear
5:35 PM 94.5 °F - 4.8 °F 4% 29.76 in 10.0 mi NW 8.1 mph 17.3 mph N/A   Clear
5:55 PM 94.6 °F - -1.5 °F 4% 29.76 in 10.0 mi WNW 10.4 mph - N/A   Clear
6:15 PM 94.6 °F - -4.9 °F 4% 29.76 in 10.0 mi NW 9.2 mph - N/A   Clear
6:35 PM 94.3 °F - 0.3 °F 4% 29.76 in 10.0 mi NNW 8.1 mph - N/A   Clear
6:55 PM 93.7 °F - 2.1 °F 4% 29.77 in 10.0 mi NW 5.8 mph - N/A   Clear
7:15 PM 93.4 °F - 0.7 °F 4% 29.77 in 10.0 mi North 6.9 mph - N/A   Clear
7:35 PM 91.8 °F - 3.0 °F 4% 29.78 in 10.0 mi North 4.6 mph - N/A   Clear
7:55 PM 89.4 °F - 6.1 °F 4% 29.78 in 10.0 mi North 3.5 mph - N/A   Clear
8:15 PM 87.1 °F - 8.4 °F 5% 29.79 in 10.0 mi North 4.6 mph - N/A   Clear
8:35 PM 84.0 °F - 10.8 °F 6% 29.80 in 10.0 mi North 5.8 mph - N/A   Clear
8:55 PM 81.3 °F - 12.0 °F 7% 29.80 in 10.0 mi North 5.8 mph - N/A   Clear
9:15 PM 79.7 °F - 12.4 °F 8% 29.81 in 10.0 mi NNE 4.6 mph - N/A   Clear
9:35 PM 79.2 °F - 11.3 °F 8% 29.82 in 10.0 mi Calm Calm - N/A   Clear
9:55 PM 77.2 °F - 9.5 °F 8% 29.82 in 10.0 mi North 3.5 mph - N/A   Clear
10:15 PM 75.2 °F - 6.4 °F 7% 29.83 in 10.0 mi Calm Calm - N/A   Clear
10:35 PM 72.3 °F - 11.5 °F 10% 29.83 in 10.0 mi Calm Calm - N/A   Clear
10:55 PM 70.5 °F - 12.6 °F 11% 29.85 in 10.0 mi East 6.9 mph - N/A   Clear
11:15 PM 72.9 °F - 9.7 °F 9% 29.87 in 10.0 mi North 8.1 mph - N/A   Clear
11:35 PM 73.4 °F - 26.4 °F 17% 29.87 in 10.0 mi ENE 4.6 mph - N/A   Clear
11:55 PM 70.9 °F - 30.6 °F 22% 29.88 in 10.0 mi ESE 3.5 mph - N/A   Clear